This is the latest recevied weather packets stored in our database for station/object K4VEB. If no packets are shown the sender has not sent any weather packets the latest 10 day(s).
| Time | Temp. | Humidity | Pressure | Rain* | Wind** | Luminosity | Snow |
|---|---|---|---|---|---|---|---|
| 1777377722 | 18.89° C | 94% | 1019.8 hPa | 0 mm | - | 55 W/m² | - |
| 1777377417 | 18.89° C | 94% | 1019.6 hPa | 0 mm | - | 58 W/m² | - |
| 1777377114 | 18.89° C | 94% | 1019.5 hPa | 0 mm | - | 50 W/m² | - |
| 1777376811 | 18.89° C | 95% | 1019.5 hPa | 0 mm | - | 39 W/m² | - |
| 1777376508 | 18.89° C | 95% | 1019.3 hPa | 0 mm | - | 37 W/m² | - |
| 1777376203 | 18.89° C | 95% | 1019.2 hPa | 0 mm | - | 37 W/m² | - |
| 1777375899 | 18.89° C | 95% | 1019 hPa | 0 mm | - | 29 W/m² | - |
| 1777375593 | 18.89° C | 95% | 1018.9 hPa | 0 mm | - | 19 W/m² | - |
| 1777375289 | 18.89° C | 95% | 1018.9 hPa | 0 mm | - | 16 W/m² | - |
| 1777374986 | 18.89° C | 95% | 1019 hPa | 0 mm | - | 12 W/m² | - |
| 1777374681 | 18.89° C | 94% | 1018.9 hPa | 0 mm | - | 11 W/m² | - |
| 1777374377 | 18.89° C | 95% | 1018.8 hPa | 0 mm | - | 8 W/m² | - |
| 1777374074 | 18.89° C | 95% | 1019.1 hPa | 0 mm | - | 6 W/m² | - |
| 1777373770 | 18.89° C | 95% | 1018.8 hPa | 0 mm | - | 4 W/m² | - |
| 1777373468 | 18.89° C | 94% | 1018.8 hPa | 0 mm | - | 3 W/m² | - |
| 1777373163 | 18.89° C | 94% | 1018.8 hPa | 0 mm | - | 1 W/m² | - |
| 1777372858 | 18.89° C | 94% | 1018.8 hPa | 0 mm | - | 0 W/m² | - |
| 1777372553 | 18.89° C | 94% | 1018.7 hPa | 0 mm | - | 0 W/m² | - |
| 1777372252 | 18.89° C | 94% | 1018.7 hPa | 0 mm | - | 0 W/m² | - |
| 1777371951 | 18.89° C | 94% | 1018.7 hPa | 0 mm | - | 0 W/m² | - |
| 1777371648 | 18.89° C | 94% | 1018.6 hPa | 0 mm | - | 0 W/m² | - |
| 1777371345 | 18.89° C | 94% | 1018.7 hPa | 0 mm | - | 0 W/m² | - |
| 1777371041 | 18.89° C | 94% | 1018.5 hPa | 0 mm | - | 0 W/m² | - |
| 1777370737 | 18.89° C | 94% | 1018.4 hPa | 0 mm | - | 0 W/m² | - |
| 1777370433 | 18.89° C | 94% | 1018.7 hPa | 0 mm | - | 0 W/m² | - |
* Rain latest hour (hover to see other rain measurements)
** Current wind speed in m/s (hover to see current wind gust speed)